[[{"header":{"parameterUnit":"m.s-1","parameterCategory":1,"la1":30.2991,"la2":30.254,"lo1":-89.0895,"lo2":-89.0444,"dy":0.0017,"dx":0.0017,"nx":28,"ny":28,"refTime":"2025-07-07T03:00:00:Z","depth":0,"parameterNumber":2,"parameterNumberName":"U-component_of_WINDS"},"data":[0,0,0,0,0,0,0,0,0,0,0,0,0,0,0,0,0,0,0,0,0,0,0,0,0,0,0,0,0,0,0,0,0,0,0,0,0,0,0,0,0,0,0,0,0,0,0,0,0,0,0,0,0,0,0,0,0,0,1.1306,1.1307,0,1.1326,1.1326,1.1327,1.1318,1.1317,1.1317,1.1316,1.1336,1.1337,1.1338,0,0,0,0,0,0,0,0,0,0,0,0,0,1.1261,1.1262,1.1306,1.1307,1.1307,1.1326,1.1326,1.1327,1.1318,1.1317,1.1317,1.1316,1.1336,1.1337,1.1338,0,0,0,0,0,0,0,0,0,0,0,0,0,1.1281,1.1262,1.1306,1.1305,1.1305,1.1326,1.1326,1.1327,1.1318,1.1317,1.1317,1.1316,1.1336,1.1337,1.1338,1.1362,0,0,1.1343,1.1344,0,0,0,0,0,0,0,0,1.128,1.1283,1.1305,1.1305,1.1305,1.1319,1.1318,1.1339,1.1318,1.1313,1.1316,1.1316,1.1331,1.1333,1.1338,1.1363,1.1364,1.1343,1.1344,1.1345,1.1345,0,0,0,0,0,0,0,1.1278,1.1282,1.1314,1.1305,1.1305,1.1303,1.1305,1.1322,1.1326,1.1313,1.1313,1.1315,1.1331,1.1337,1.1338,1.1364,1.1343,1.1344,1.1345,1.1346,1.1409,1.141,0,0,0,0,0,0,1.1277,1.1281,1.1314,1.1315,1.129,1.1305,1.1307,1.1315,1.1326,1.1327,1.1316,1.1315,1.1335,1.1337,1.1339,1.1367,1.1345,1.1346,1.1347,1.1409,1.141,1.141,0,0,0,0,0,0,1.1276,1.128,1.1313,1.1298,1.1302,1.1306,1.1316,1.1316,1.1322,1.1328,1.1328,1.1321,1.1334,1.1337,1.1356,1.1368,1.1347,1.1348,1.1408,1.1409,1.141,1.1424,0,0,0,0,0,0,1.1275,1.128,1.1289,1.1298,1.1302,1.133,1.1316,1.1317,1.1324,1.1323,1.1332,1.1333,1.1334,1.1354,1.1358,1.1369,1.1349,1.1407,1.1408,1.141,1.1422,1.1425,1.1428,0,0,0,0,0,1.1273,1.1292,1.1289,1.1293,1.1314,1.133,1.1333,1.1333,1.1325,1.1334,1.1338,1.1333,1.1366,1.1356,1.136,1.1372,1.1406,1.1408,1.141,1.1421,1.1425,1.1428,0,0,0,0,0,0,1.1284,1.1293,1.129,1.1312,1.1321,1.1329,1.134,1.1337,1.1348,1.1346,1.1346,1.1348,1.1368,1.1372,1.1361,1.1396,1.1385,1.1388,1.1392,1.1396,1.1398,1.1396,1.135,0,0,0,0,0,1.1289,1.1302,1.1309,1.1328,1.1332,1.1336,1.1343,1.1342,1.1351,1.1354,1.136,1.1368,1.138,1.1388,1.14,1.1423,1.1425,1.1434,1.1436,1.1439,1.1441,1.1453,1.1457,1.1416,1.1416,1.1416,0,0,1.1299,1.1306,1.1314,1.133,1.1336,1.135,1.1339,1.1353,1.1363,1.1356,1.1375,1.1379,1.1389,1.141,1.142,1.1414,1.1452,1.1441,1.1443,1.1443,1.1455,1.1459,1.1462,1.1418,1.1417,1.1417,0,0,1.1324,1.1331,1.1347,1.1354,1.1364,1.1366,1.137,1.1379,1.1381,1.14,1.1395,1.1407,1.1428,1.1435,1.1442,1.147,1.1466,1.1474,1.1488,1.15,1.1503,1.1506,1.1515,1.1519,1.1476,1.1476,1.1476,0,1.1336,1.1355,1.1356,1.137,1.1378,1.1373,1.1389,1.1396,1.1409,1.1414,1.1408,1.1435,1.1441,1.1463,1.147,1.1476,1.148,1.1472,1.1503,1.1505,1.1508,1.1517,1.1521,1.1477,1.1477,1.1477,1.1477,0,1.1369,1.1382,1.1394,1.1407,1.1416,1.1431,1.1434,1.1443,1.1442,1.1445,1.1464,1.1471,1.1484,1.1489,1.1488,1.1512,1.1508,1.1503,1.1491,1.1513,1.1521,1.1525,1.1478,1.1478,1.1478,1.1477,0,0,1.14,1.1413,1.1418,1.1423,1.1434,1.1445,1.146,1.1473,1.148,1.149,1.1503,1.1521,1.1516,1.1523,1.1523,1.1534,1.1555,1.1526,1.1527,1.1531,1.1581,1.1585,1.1589,1.1553,1.1553,1.1554,1.158,0,1.1426,1.1452,1.1453,1.1478,1.149,1.1486,1.15,1.1508,1.1511,1.1522,1.1526,1.1539,1.1531,1.1536,1.1546,1.155,1.1565,1.1548,1.1564,1.1565,1.1561,1.1593,1.1597,1.1621,1.1583,1.1584,1.1584,0,1.1459,1.1469,1.1495,1.1504,1.1509,1.1521,1.1533,1.1544,1.1553,1.1555,1.1563,1.1561,1.1577,1.1566,1.1588,1.1576,1.1583,1.1586,1.1587,1.1588,1.1575,1.1594,1.1629,1.1633,1.159,1.1589,1.1589,0,1.1478,1.1499,1.1517,1.1522,1.1533,1.1542,1.1547,1.1555,1.1563,1.1574,1.1578,1.1591,1.1597,1.1607,1.1609,1.16,1.163,1.1619,1.1632,1.1632,1.1637,1.1637,1.1673,1.1643,1.1643,1.1643,1.1643,0,1.1506,1.1522,1.1526,1.1537,1.1554,1.1556,1.1573,1.1577,1.1585,1.1597,1.1594,1.1606,1.1608,1.1619,1.1621,1.1638,1.1641,1.1643,1.1643,1.1643,1.1643,1.1647,1.1645,1.1644,1.1643,1.1643,1.1643,0,1.1531,1.1534,1.1553,1.1563,1.1565,1.1578,1.1585,1.1596,1.1599,1.1614,1.1618,1.1623,1.1636,1.1639,1.1656,1.1657,1.1677,1.1676,1.1674,1.1674,1.1686,1.1684,1.1725,1.173,1.1697,1.1698,1.1698,0,1.1548,1.156,1.157,1.1578,1.1583,1.1596,1.1604,1.1606,1.1614,1.1625,1.1635,1.1648,1.1658,1.168,1.1686,1.1698,1.1697,1.171,1.1698,1.1698,1.1696,1.1695,1.1696,1.1712,1.1712,1.1713,1.1713,0,1.1578,1.1579,1.159,1.1602,1.1612,1.1621,1.1631,1.1637,1.164,1.165,1.1663,1.1672,1.1688,1.1701,1.1714,1.1719,1.1717,1.1717,1.172,1.172,1.1718,1.1718,1.1679,1.1716,1.1715,1.1715,1.1715,1.1715,1.1599,1.1609,1.1618,1.1631,1.1638,1.1647,1.1657,1.1662,1.1673,1.1687,1.1687,1.1702,1.1711,1.1728,1.1734,1.1746,1.1741,1.1747,1.1748,1.1749,1.175,1.1716,1.1748,1.1748,1.1748,1.1748,1.1748,0,1.1628,1.1634,1.1645,1.1658,1.1668,1.1665,1.1675,1.1684,1.1697,1.1706,1.1717,1.1733,1.1745,1.1752,1.1765,1.1773,1.1772,1.1776,1.1775,1.1776,1.1753,1.1748,1.1777,1.1777,1.1777,1.1777,1.1777,1.1777,1.1644,1.1662,1.1664,1.1685,1.169,1.1705,1.1711,1.1719,1.1726,1.1744,1.1754,1.1759,1.1766,1.178,1.1792,1.1793,1.1798,1.1802,1.1803,1.1781,1.1778,1.1775,1.1771,1.1803,1.1803,1.1826,1.1826,1.1826]},{"header":{"parameterUnit":"m.s-1","parameterCategory":1,"la1":30.2991,"la2":30.254,"lo1":-89.0895,"lo2":-89.0444,"dy":0.0017,"dx":0.0017,"nx":28,"ny":28,"refTime":"2025-07-07T03:00:00:Z","depth":0,"parameterNumber":3,"parameterNumberName":"V-component_of_WINDS"},"data":[0,0,0,0,0,0,0,0,0,0,0,0,0,0,0,0,0,0,0,0,0,0,0,0,0,0,0,0,0,0,0,0,0,0,0,0,0,0,0,0,0,0,0,0,0,0,0,0,0,0,0,0,0,0,0,0,0,0,0.6936,0.6938,0,0.7116,0.7118,0.712,0.715,0.7149,0.7147,0.7145,0.7336,0.7343,0.7349,0,0,0,0,0,0,0,0,0,0,0,0,0,0.6625,0.663,0.6936,0.6938,0.694,0.7115,0.7118,0.712,0.715,0.7148,0.7147,0.7145,0.7334,0.7342,0.735,0,0,0,0,0,0,0,0,0,0,0,0,0,0.6778,0.6632,0.6935,0.6976,0.6982,0.7115,0.7118,0.7121,0.7151,0.7148,0.7146,0.7144,0.7332,0.7341,0.7351,0.7458,0,0,0.7381,0.7385,0,0,0,0,0,0,0,0,0.6769,0.6789,0.6968,0.6974,0.698,0.7108,0.7078,0.7234,0.7151,0.7087,0.7145,0.7143,0.7263,0.7278,0.7317,0.7467,0.7475,0.7382,0.7388,0.7392,0.7395,0,0,0,0,0,0,0,0.6758,0.6782,0.7007,0.697,0.6978,0.6988,0.7007,0.7108,0.7186,0.7092,0.7095,0.7115,0.7266,0.7308,0.7322,0.7478,0.7381,0.739,0.7396,0.74,0.7726,0.7729,0,0,0,0,0,0,0.674,0.6773,0.7001,0.7012,0.6866,0.6995,0.7016,0.7069,0.7185,0.72,0.7117,0.7116,0.7292,0.731,0.7329,0.7463,0.7392,0.7401,0.7407,0.7724,0.7727,0.773,0,0,0,0,0,0,0.6733,0.676,0.6994,0.6893,0.6924,0.7003,0.7062,0.7074,0.7116,0.7203,0.7218,0.7145,0.7291,0.7315,0.7425,0.747,0.7405,0.7414,0.772,0.7725,0.7729,0.7732,0,0,0,0,0,0,0.6724,0.6757,0.6797,0.6894,0.6929,0.7086,0.7065,0.7079,0.7132,0.7132,0.7234,0.7249,0.7291,0.7411,0.7435,0.7482,0.7422,0.7717,0.7722,0.7727,0.7728,0.7736,0.7742,0,0,0,0,0,0.6712,0.6792,0.6799,0.6826,0.698,0.7089,0.7109,0.7154,0.7135,0.7178,0.7234,0.7245,0.746,0.7422,0.745,0.75,0.7714,0.7721,0.7727,0.7725,0.7734,0.7742,0,0,0,0,0,0,0.6701,0.6806,0.6814,0.6927,0.6998,0.7093,0.7148,0.7162,0.7242,0.7239,0.7294,0.7317,0.7425,0.7474,0.7428,0.7611,0.7586,0.7598,0.7575,0.7585,0.7591,0.7579,0.743,0,0,0,0,0,0.6711,0.6788,0.6876,0.6967,0.7002,0.7069,0.7117,0.7146,0.7223,0.7254,0.7318,0.7394,0.7479,0.7534,0.7617,0.7734,0.7758,0.7783,0.779,0.7795,0.7806,0.7873,0.7886,0.7751,0.7751,0.775,0,0,0.6734,0.68,0.6846,0.6967,0.7025,0.7106,0.7094,0.718,0.7241,0.7268,0.7376,0.7426,0.7514,0.7629,0.7683,0.7673,0.7848,0.7803,0.7807,0.7815,0.7881,0.7894,0.7905,0.7755,0.7754,0.7753,0,0,0.6817,0.6874,0.6957,0.7015,0.7103,0.7147,0.7166,0.7259,0.7293,0.7401,0.7423,0.7498,0.7642,0.7705,0.7756,0.7861,0.7876,0.7887,0.7924,0.7989,0.7999,0.8009,0.8049,0.8062,0.7897,0.7897,0.7897,0,0.6835,0.6955,0.6998,0.7083,0.7136,0.7161,0.7247,0.7302,0.7413,0.7451,0.7437,0.7619,0.7681,0.7811,0.7837,0.7876,0.7902,0.7877,0.7994,0.8004,0.8014,0.8053,0.8067,0.7898,0.7897,0.7897,0.7897,0,0.6974,0.7057,0.7114,0.7218,0.7277,0.7362,0.742,0.7475,0.7498,0.7543,0.7655,0.7729,0.7828,0.786,0.7884,0.7995,0.7986,0.7982,0.7959,0.8027,0.8064,0.8079,0.7899,0.7899,0.7898,0.7898,0,0,0.7057,0.7183,0.7203,0.7251,0.735,0.7416,0.7502,0.7596,0.7644,0.7719,0.7795,0.7916,0.7913,0.7971,0.8002,0.8059,0.814,0.8049,0.8052,0.8065,0.8268,0.8272,0.8288,0.8149,0.8152,0.8154,0.8261,0,0.7153,0.7306,0.7347,0.7477,0.7556,0.758,0.7656,0.7725,0.777,0.7845,0.7895,0.7981,0.7969,0.8004,0.8061,0.8118,0.8182,0.811,0.8222,0.8226,0.8201,0.8307,0.8311,0.8409,0.8276,0.8278,0.828,0,0.7287,0.7363,0.75,0.7589,0.7623,0.769,0.778,0.785,0.793,0.7959,0.8022,0.8048,0.8141,0.8111,0.8241,0.8192,0.824,0.8274,0.8279,0.8294,0.8259,0.8326,0.8441,0.8456,0.8303,0.8301,0.83,0,0.7336,0.7473,0.7573,0.7613,0.7718,0.7765,0.7811,0.7889,0.7943,0.8022,0.8058,0.8148,0.8198,0.8267,0.8317,0.829,0.8444,0.8418,0.8473,0.8472,0.8507,0.8504,0.8633,0.8533,0.8533,0.8533,0.8532,0,0.744,0.7524,0.7596,0.7659,0.7754,0.78,0.7894,0.7942,0.801,0.8083,0.811,0.8179,0.8239,0.8317,0.8357,0.846,0.8482,0.8509,0.8519,0.8508,0.8505,0.8542,0.8538,0.8537,0.8536,0.8535,0.8534,0,0.7513,0.7564,0.7675,0.7765,0.7789,0.7856,0.7933,0.7996,0.804,0.8133,0.8157,0.8228,0.8321,0.8377,0.8494,0.8521,0.8636,0.8642,0.8608,0.8613,0.8666,0.8661,0.8825,0.885,0.8731,0.8732,0.8733,0,0.7577,0.7642,0.7738,0.7787,0.7834,0.7914,0.7969,0.8017,0.8074,0.8169,0.8221,0.8314,0.8392,0.8539,0.8602,0.8693,0.8703,0.8754,0.8717,0.8704,0.8707,0.8703,0.8711,0.8761,0.8762,0.8763,0.8764,0,0.7687,0.7709,0.7786,0.7872,0.7936,0.8006,0.8077,0.8117,0.8177,0.824,0.8333,0.8393,0.8512,0.8606,0.8701,0.8752,0.8769,0.8774,0.8792,0.8783,0.8762,0.8776,0.8628,0.8771,0.877,0.877,0.877,0.8769,0.7759,0.7818,0.7895,0.798,0.8037,0.8102,0.8165,0.8216,0.8295,0.8394,0.8418,0.8517,0.8596,0.8726,0.8778,0.8858,0.885,0.8876,0.8883,0.8889,0.8891,0.8746,0.8875,0.8875,0.8875,0.8875,0.8875,0,0.7872,0.7922,0.7999,0.8096,0.8163,0.817,0.8248,0.8305,0.8391,0.8462,0.8537,0.8646,0.8736,0.8806,0.8899,0.895,0.896,0.8973,0.8971,0.8983,0.8892,0.8868,0.8963,0.8963,0.8963,0.8963,0.8963,0.8963,0.7939,0.804,0.8071,0.8201,0.8251,0.8346,0.839,0.8451,0.8508,0.8627,0.8702,0.8745,0.8817,0.8916,0.9,0.9018,0.9052,0.9064,0.9084,0.8999,0.8989,0.898,0.8958,0.9071,0.9071,0.9169,0.917,0.9171]}]]